Location: El Conde
(10.2895°N, 67.2409°W)
Time: 09:13:35
(UTC+00:00)

ATLAS 2AS CENTAUR RB - Pass Details

Date: 19 May 2024
Orbit: 274 x 22775 km, 12.6° (Epoch: 22 June)

Event Time Altitude Azimuth Distance (km) Brightness Sun altitude
Rises 19:51:04 0° 248° (WSW) 2,605 5.3 39.6°
Reaches altitude 10° 19:52:22 10° 244° (WSW) 2,040 4.9 39.3°
Maximum altitude 19:56:32 66° 161° (SSE) 1,353 3.7 38.4°
Drops below altitude 10° 20:19:57 10° 82° (E) 9,961 7.3 32.9°
Sets 20:45:08 0° 81° (E) 16,635 8.3 27.0°
